EW2348 Weather Reports


Display with metric or nautical units.
time (UTC)temp
F
wind
direction
speed
MPH
gust
MPH
rain 1hr
in
rain 24hr
in
rain mn
in
humidity
%
barometer
mb
20140723135034 75 120 2.0 5.0 0.02 0.02 0.02 86 1017.4
20140723134033 76 151 2.0 6.0 0.02 0.02 0.02 79 1017.8
20140723132033 76 102 2.0 5.0 0.00 0.00 0.00 78 1018.0
20140723131033 75 259 0.0 2.0 0.00 0.00 0.00 81 1018.3
20140723130032 75 84 0.0 4.0 0.00 0.00 0.00 79 1018.3
20140723121031 74 4 6.0 13.0 0.00 0.00 0.00 84 1018.7
20140723120031 74 326 2.0 8.0 0.00 0.00 0.00 84 1018.9
20140723114031 72 325 3.0 6.0 0.00 0.00 0.00 73 1018.4
20140723112031 72 0 0.0 0.0 0.00 0.00 0.00 78 1018.1
20140723111031 72 0 0.0 0.0 0.00 0.00 0.00 81 1018.0
20140723110030 72 314 0.0 2.0 0.00 0.00 0.00 81 1017.9
20140723105031 72 105 0.0 1.0 0.00 0.00 0.00 80 1017.7
20140723100030 72 1 0.0 2.0 0.00 0.00 0.00 83 1017.5
20140723095030 72 1 1.0 2.0 0.00 0.00 0.00 81 1017.3
20140723094029 71 270 0.0 1.0 0.00 0.00 0.00 84 1017.3
20140723093030 72 270 0.0 1.0 0.00 0.00 0.00 86 1017.1
20140723092029 72 350 0.0 2.0 0.00 0.00 0.00 86 1017.0
20140723090029 73 146 2.0 4.0 0.00 0.00 0.00 87 1016.6
20140723085028 73 131 2.0 3.0 0.00 0.00 0.00 87 1016.3
20140723084029 73 152 1.0 3.0 0.00 0.00 0.00 88 1016.4
20140723082028 73 130 2.0 4.0 0.00 0.00 0.00 87 1015.9
20140723081028 73 144 1.0 3.0 0.00 0.00 0.00 87 1016.0
20140723074028 73 150 2.0 4.0 0.00 0.00 0.00 89 1016.4
20140723071028 74 109 1.0 3.0 0.00 0.00 0.00 88 1016.8
20140723065027 73 283 0.0 2.0 0.00 0.00 0.00 87 1017.1
20140723061026 75 314 0.0 1.0 0.00 0.00 0.00 85 1017.0
20140723060026 75 76 0.0 2.0 0.00 0.00 0.00 84 1016.9
20140723055026 76 126 1.0 2.0 0.00 0.00 0.00 85 1017.0
20140723054026 76 134 1.0 2.0 0.00 0.00 0.00 84 1017.1
20140723050025 77 141 2.0 2.0 0.00 0.00 0.00 81 1017.0
20140723044024 78 135 1.0 2.0 0.00 0.00 0.00 78 1017.0
20140723043025 79 107 1.0 3.0 0.00 0.00 0.00 77 1017.1
20140723041024 79 114 1.0 2.0 0.00 0.00 0.00 77 1017.1
20140723035024 79 109 1.0 2.0 0.00 0.00 0.00 76 1017.3
20140723032024 80 126 0.0 2.0 0.00 0.00 0.00 73 1017.5
20140723031024 79 156 0.0 3.0 0.00 0.00 0.00 75 1017.6
20140723030023 79 143 1.0 3.0 0.00 0.00 0.00 77 1017.7
20140723025024 79 135 0.0 2.0 0.00 0.00 0.00 75 1017.5
20140723023023 81 109 0.0 2.0 0.00 0.00 0.00 71 1017.3
20140723022024 81 104 1.0 2.0 0.00 0.00 0.00 71 1017.3
20140723021023 81 110 0.0 2.0 0.00 0.00 0.00 71 1017.4
20140723020022 81 135 0.0 3.0 0.00 0.00 0.00 70 1017.4
20140723014022 81 166 1.0 3.0 0.00 0.00 0.00 71 1017.3
20140723010022 83 135 0.0 2.0 0.00 0.00 0.00 67 1016.9
20140723003022 87 158 0.0 2.0 0.00 0.00 0.00 60 1016.9
20140723002021 89 168 0.0 3.0 0.00 0.00 0.00 57 1016.9
20140723001021 92 169 1.0 3.0 0.00 0.00 0.00 53 1017.0
20140723000020 94 202 0.0 3.0 0.00 0.00 0.00 50 1016.9
20140722235021 94 177 1.0 4.0 0.00 0.00 0.00 50 1017.1
20140722234021 94 175 1.0 4.0 0.00 0.00 0.00 49 1017.0
20140722233021 95 178 1.0 3.0 0.00 0.00 0.00 49 1017.0
20140722232020 95 215 1.0 4.0 0.00 0.00 0.00 49 1017.0
20140722231019 96 181 2.0 4.0 0.00 0.00 0.00 49 1017.0
20140722230020 97 173 2.0 4.0 0.00 0.00 0.00 46 1017.0
20140722225020 97 162 2.0 4.0 0.00 0.00 0.00 46 1017.0
20140722223020 98 218 1.0 4.0 0.00 0.00 0.00 47 1016.8
20140722221019 95 171 2.0 4.0 0.00 0.00 0.00 47 1016.9
20140722220019 97 160 0.0 3.0 0.00 0.00 0.00 47 1017.0
20140722203017 97 358 2.0 4.0 0.00 0.00 0.00 46 1017.2
20140722202017 95 4 0.0 4.0 0.00 0.00 0.00 51 1017.4
20140722201017 97 341 1.0 3.0 0.00 0.00 0.00 48 1017.3
20140722200021 93 181 0.0 2.0 0.00 0.00 0.00 51 1017.6
20140722195017 93 178 0.0 26.0 0.00 0.00 0.00 51 1017.7
20140722194016 92 191 2.0 4.0 0.00 0.00 0.00 51 1017.7
20140722193016 92 163 2.0 4.0 0.00 0.00 0.00 52 1017.8
20140722185016 92 93 2.0 8.0 0.00 0.00 0.00 51 1018.3
20140722182015 91 119 2.0 5.0 0.00 0.00 0.00 57 1018.3
20140722180016 90 125 2.0 7.0 0.00 0.00 0.00 56 1018.5
20140722175015 92 155 3.0 8.0 0.00 0.00 0.00 53 1018.4
20140722174015 93 64 4.0 8.0 0.00 0.00 0.00 50 1018.5
20140722172014 94 117 2.0 5.0 0.00 0.00 0.00 51 1018.8
20140722170015 91 115 4.0 7.0 0.00 0.00 0.00 52 1018.8
20140722165014 91 115 2.0 7.0 0.00 0.00 0.00 60 1019.0
20140722162013 89 136 1.0 4.0 0.00 0.00 0.00 63 1019.3
20140722160014 90 8 0.0 4.0 0.00 0.00 0.00 65 1019.3
20140722154013 89 106 1.0 4.0 0.00 0.00 0.00 65 1019.5
20140722153013 90 2 0.0 5.0 0.00 0.00 0.00 66 1019.5
20140722151013 89 63 0.0 3.0 0.00 0.00 0.00 67 1019.6
20140722145013 87 150 1.0 4.0 0.00 0.00 0.00 71 1019.8
20140722144013 86 121 0.0 7.0 0.00 0.00 0.00 72 1019.8
20140722143012 86 121 2.0 5.0 0.00 0.00 0.00 72 1019.8
20140722142013 86 94 2.0 4.0 0.00 0.00 0.00 71 1020.0
20140722141012 85 84 1.0 5.0 0.00 0.00 0.00 73 1019.9
20140722140012 84 127 3.0 6.0 0.00 0.00 0.00 72 1019.8